[[{"header":{"parameterUnit":"m.s-1","parameterCategory":2,"la1":30.2991,"la2":30.254,"lo1":-89.0895,"lo2":-89.0444,"dy":0.0017,"dx":0.0017,"nx":28,"ny":28,"refTime":"2024-08-01T09:00:00:Z","depth":"0","parameterNumber":2,"parameterNumberName":"U-component_of_CURRENTS"},"data":[0,0,0,0,0,0,0,0,0,0,0,0,0,0,0,0,0,0,0,0,0,0,0,0,0,0,0,0,0,0,0,0,0,0,0,0,0,0,0,0,0,0,0,0,0,0,0,0,0,0,0,0,0,0,0,0,0,0,0.1685,0.1685,0,0.1672,0.1671,0.1671,0.1637,0.1636,0.1636,0.1635,0.1636,0.1637,0.1637,0,0,0,0,0,0,0,0,0,0,0,0,0,0.1724,0.1723,0.1685,0.1685,0.1685,0.1672,0.1671,0.1671,0.1637,0.1636,0.1635,0.1635,0.1636,0.1636,0.1637,0,0,0,0,0,0,0,0,0,0,0,0,0,0.1708,0.1723,0.1685,0.1666,0.1665,0.1672,0.1671,0.1671,0.1637,0.1636,0.1635,0.1634,0.1635,0.1636,0.1637,0.1664,0,0,0.164,0.1641,0,0,0,0,0,0,0,0,0.1709,0.1706,0.1669,0.1668,0.1666,0.1655,0.1685,0.167,0.1638,0.1647,0.1635,0.1634,0.1645,0.1645,0.1644,0.1664,0.1664,0.164,0.1641,0.1641,0.1642,0,0,0,0,0,0,0,0.171,0.1707,0.1679,0.1669,0.1667,0.1674,0.167,0.1682,0.1652,0.1646,0.1644,0.1644,0.1644,0.1643,0.1644,0.1664,0.164,0.1641,0.1642,0.1642,0.173,0.1732,0,0,0,0,0,0,0.1711,0.1708,0.1679,0.1679,0.1686,0.1674,0.1669,0.1659,0.1651,0.1649,0.1644,0.1642,0.1642,0.1642,0.1644,0.1709,0.1641,0.1642,0.1643,0.1729,0.1731,0.1733,0,0,0,0,0,0,0.1712,0.1708,0.168,0.1694,0.1691,0.1674,0.1663,0.166,0.1661,0.165,0.1647,0.1649,0.1641,0.1642,0.1659,0.1707,0.1643,0.1644,0.1727,0.1729,0.1732,0.1818,0,0,0,0,0,0,0.1713,0.1708,0.1704,0.1694,0.169,0.169,0.1664,0.166,0.1662,0.1659,0.1654,0.1652,0.164,0.1658,0.166,0.1707,0.1644,0.1724,0.1728,0.1731,0.1813,0.1823,0.1832,0,0,0,0,0,0.1714,0.171,0.1704,0.1701,0.1684,0.169,0.169,0.1674,0.1664,0.167,0.1666,0.1652,0.1681,0.166,0.1662,0.1711,0.1723,0.1727,0.1731,0.1809,0.1821,0.1832,0,0,0,0,0,0,0.1725,0.1707,0.1699,0.1689,0.1694,0.1685,0.1687,0.1683,0.1685,0.1679,0.1669,0.1668,0.1707,0.1694,0.1671,0.1746,0.1703,0.1707,0.1761,0.1773,0.1782,0.1802,0.1645,0,0,0,0,0,0.1727,0.1717,0.1711,0.1705,0.1707,0.1701,0.1703,0.1695,0.1695,0.1693,0.1696,0.1702,0.1727,0.1735,0.1747,0.1783,0.1778,0.1817,0.1827,0.1835,0.1853,0.191,0.1927,0.1746,0.1746,0.1746,0,0,0.1731,0.1719,0.1714,0.1707,0.1706,0.1724,0.1699,0.1703,0.1731,0.1696,0.1733,0.1737,0.1743,0.1786,0.1803,0.178,0.1875,0.184,0.1847,0.1861,0.1916,0.1934,0.195,0.1748,0.1748,0.1747,0,0,0.1738,0.1724,0.1722,0.1731,0.1731,0.1738,0.1744,0.1747,0.1759,0.1789,0.1785,0.1819,0.1835,0.1866,0.188,0.1952,0.1926,0.1951,0.2016,0.2072,0.2087,0.2101,0.2076,0.2088,0.1954,0.1954,0.1954,0,0.1744,0.1744,0.1727,0.1736,0.1759,0.175,0.178,0.1794,0.1808,0.1838,0.1809,0.1877,0.1883,0.1962,0.1988,0.1978,0.1972,0.1971,0.2086,0.21,0.2113,0.2084,0.2095,0.1959,0.1958,0.1958,0.1957,0,0.1752,0.1766,0.1771,0.1785,0.1806,0.1829,0.1854,0.1883,0.1897,0.1916,0.1985,0.1992,0.2033,0.2049,0.2041,0.2144,0.2094,0.2093,0.2058,0.2136,0.21,0.211,0.1965,0.1964,0.1962,0.1961,0,0,0.1743,0.1771,0.1775,0.1814,0.1841,0.1869,0.1923,0.1985,0.2031,0.2052,0.2117,0.2176,0.2172,0.2189,0.2189,0.2242,0.2316,0.221,0.221,0.2186,0.2383,0.2123,0.2108,0.2338,0.2341,0.2344,0.2305,0,0.1765,0.1808,0.1814,0.1891,0.1936,0.1962,0.202,0.2073,0.2104,0.2159,0.2195,0.2239,0.2226,0.224,0.2301,0.2323,0.2354,0.2323,0.231,0.2308,0.2071,0.2116,0.1947,0.188,0.2315,0.2317,0.2318,0,0.1785,0.1818,0.1887,0.1981,0.2,0.204,0.2143,0.2186,0.2255,0.2274,0.2322,0.2325,0.2406,0.2369,0.2454,0.2432,0.2419,0.2422,0.242,0.216,0.2069,0.1881,0.1882,0.1816,0.2333,0.2332,0.2331,0,0.1827,0.1887,0.1953,0.1981,0.2064,0.2111,0.2155,0.2227,0.227,0.2335,0.2349,0.2433,0.2448,0.2499,0.2468,0.2483,0.2517,0.2535,0.228,0.2259,0.2103,0.206,0.2042,0.2593,0.2593,0.2594,0.2594,0,0.1875,0.194,0.1976,0.2023,0.2114,0.2148,0.2235,0.2285,0.233,0.2376,0.2399,0.243,0.2487,0.2488,0.2491,0.2375,0.2529,0.229,0.2246,0.2116,0.2078,0.1999,0.2002,0.2592,0.2592,0.2593,0.2593,0,0.1939,0.1955,0.2051,0.2123,0.2143,0.2211,0.2269,0.2318,0.2345,0.2394,0.2407,0.2444,0.2427,0.2406,0.2446,0.2347,0.22,0.2217,0.1999,0.1928,0.1596,0.1608,0.1506,0.1479,0.1952,0.1945,0.194,0,0.1976,0.2027,0.2115,0.2156,0.2191,0.2261,0.23,0.2336,0.2363,0.2398,0.2418,0.239,0.2366,0.2245,0.2076,0.1945,0.1969,0.1669,0.1671,0.1537,0.1526,0.1548,0.154,0.1501,0.1492,0.1485,0.148,0,0.2061,0.2091,0.2159,0.2235,0.2283,0.2326,0.2367,0.2379,0.2399,0.2397,0.239,0.2366,0.2175,0.1929,0.1658,0.1576,0.1542,0.1511,0.1493,0.1249,0.1164,0.1126,0.1523,0.1417,0.1423,0.1428,0.1431,0.1434,0.2116,0.2179,0.2246,0.2322,0.2362,0.2371,0.2357,0.2359,0.2351,0.2262,0.2308,0.2129,0.1807,0.1402,0.1304,0.0896,0.1078,0.0808,0.0856,0.0908,0.0811,0.0987,0.0747,0.0749,0.0751,0.0753,0.0755,0,0.2174,0.2237,0.2318,0.2379,0.2397,0.2404,0.238,0.2296,0.2216,0.211,0.2022,0.1572,0.1215,0.0925,0.042,0.0276,0.0358,0.0246,0.0334,0.0383,0.0632,0.0539,0.0096,0.0096,0.0096,0.0096,0.0096,0.0096,0.2206,0.2296,0.2339,0.2381,0.2394,0.2318,0.2263,0.212,0.1984,0.165,0.1339,0.1172,0.0768,0.0256,-0.0095,-0.0113,-0.003,-0.0134,0.0006,0.0244,0.0305,0.0363,0.0278,-0.0212,-0.0213,-0.0266,-0.0267,-0.0268]},{"header":{"parameterUnit":"m.s-1","parameterCategory":2,"la1":30.2991,"la2":30.254,"lo1":-89.0895,"lo2":-89.0444,"dy":0.0017,"dx":0.0017,"nx":28,"ny":28,"refTime":"2024-08-01T09:00:00:Z","depth":"0","parameterNumber":3,"parameterNumberName":"V-component_of_CURRENTS"},"data":[0,0,0,0,0,0,0,0,0,0,0,0,0,0,0,0,0,0,0,0,0,0,0,0,0,0,0,0,0,0,0,0,0,0,0,0,0,0,0,0,0,0,0,0,0,0,0,0,0,0,0,0,0,0,0,0,0,0,0.0188,0.0188,0,0.0219,0.022,0.022,0.0221,0.0221,0.022,0.022,0.0257,0.0258,0.0259,0,0,0,0,0,0,0,0,0,0,0,0,0,0.0148,0.0148,0.0188,0.0188,0.0189,0.0219,0.022,0.022,0.0221,0.0221,0.022,0.022,0.0256,0.0258,0.0259,0,0,0,0,0,0,0,0,0,0,0,0,0,0.017,0.0149,0.0188,0.0194,0.0195,0.0219,0.022,0.022,0.0221,0.0221,0.022,0.022,0.0256,0.0258,0.026,0.0279,0,0,0.0265,0.0266,0,0,0,0,0,0,0,0,0.0168,0.0171,0.0192,0.0193,0.0195,0.0217,0.0219,0.024,0.0221,0.021,0.022,0.022,0.0245,0.0248,0.0253,0.0281,0.0282,0.0265,0.0266,0.0267,0.0268,0,0,0,0,0,0,0,0.0167,0.017,0.0199,0.0193,0.0194,0.0202,0.0204,0.0223,0.0228,0.0211,0.0211,0.0217,0.0245,0.0251,0.0254,0.0283,0.0265,0.0267,0.0268,0.0269,0.0339,0.034,0,0,0,0,0,0,0.0165,0.0168,0.0198,0.02,0.0182,0.0203,0.0206,0.0209,0.0228,0.0231,0.0217,0.0217,0.0248,0.0251,0.0255,0.0272,0.0267,0.0269,0.027,0.0338,0.0339,0.034,0,0,0,0,0,0,0.0164,0.0167,0.0197,0.0186,0.019,0.0204,0.0208,0.021,0.0217,0.0233,0.0236,0.0222,0.0248,0.0252,0.0273,0.0274,0.027,0.0271,0.0338,0.0339,0.034,0.031,0,0,0,0,0,0,0.0163,0.0167,0.0169,0.0186,0.0191,0.0216,0.0209,0.0211,0.0222,0.0221,0.0239,0.0242,0.0248,0.027,0.0275,0.0276,0.0273,0.0337,0.0338,0.0339,0.031,0.031,0.031,0,0,0,0,0,0.0161,0.0168,0.0169,0.0173,0.0193,0.0216,0.022,0.0227,0.0222,0.0231,0.0239,0.0241,0.0283,0.0273,0.0278,0.0279,0.0336,0.0338,0.0339,0.031,0.031,0.031,0,0,0,0,0,0,0.0153,0.017,0.017,0.0182,0.0199,0.0217,0.0227,0.023,0.0243,0.0241,0.025,0.0254,0.0273,0.0287,0.0275,0.0307,0.0311,0.0314,0.0287,0.0287,0.0287,0.0305,0.0274,0,0,0,0,0,0.0152,0.0161,0.0179,0.0189,0.0198,0.0212,0.0221,0.0227,0.0241,0.0246,0.0259,0.0273,0.0285,0.0294,0.0312,0.0329,0.0375,0.0336,0.0336,0.0336,0.0356,0.0469,0.0482,0.0346,0.0346,0.0346,0,0,0.015,0.0163,0.0165,0.0188,0.02,0.0212,0.0216,0.0234,0.0237,0.0249,0.0261,0.0276,0.0292,0.0307,0.0317,0.0317,0.0385,0.0338,0.0337,0.0358,0.0472,0.0486,0.0498,0.0347,0.0347,0.0347,0,0,0.0157,0.0163,0.0174,0.019,0.0212,0.0217,0.0223,0.0244,0.0246,0.0264,0.0268,0.0292,0.0311,0.0324,0.033,0.0348,0.0383,0.0346,0.0357,0.0465,0.0478,0.049,0.0503,0.0516,0.0344,0.0344,0.0344,0,0.0153,0.0166,0.0182,0.02,0.0205,0.0218,0.0225,0.0234,0.0258,0.0268,0.0267,0.032,0.0322,0.0349,0.0344,0.0347,0.0393,0.0347,0.0467,0.048,0.0493,0.0504,0.0519,0.0343,0.0343,0.0343,0.0343,0,0.0169,0.0178,0.0188,0.0205,0.0215,0.0225,0.0236,0.0248,0.0251,0.0268,0.0306,0.0328,0.0366,0.0359,0.0349,0.0425,0.0418,0.0454,0.0466,0.0505,0.0512,0.0529,0.0341,0.0341,0.0342,0.0342,0,0,0.0157,0.0189,0.0191,0.0197,0.0213,0.0225,0.0228,0.0243,0.0265,0.0292,0.0339,0.0345,0.038,0.0392,0.0398,0.0474,0.0558,0.0496,0.0503,0.0505,0.0746,0.069,0.0702,0.0633,0.0637,0.064,0.0691,0,0.0158,0.0182,0.0194,0.0204,0.0212,0.0221,0.0228,0.0247,0.0272,0.0327,0.0362,0.0412,0.0385,0.0415,0.0485,0.0571,0.0612,0.0537,0.0712,0.0716,0.0662,0.0725,0.0713,0.0757,0.0708,0.071,0.0712,0,0.0163,0.0176,0.0186,0.0203,0.0208,0.0214,0.0235,0.025,0.0317,0.0348,0.0413,0.0459,0.0545,0.0538,0.0692,0.0655,0.0688,0.0739,0.0744,0.0727,0.0696,0.0725,0.079,0.0807,0.0738,0.0736,0.0734,0,0.0143,0.0167,0.0168,0.0175,0.02,0.0203,0.0212,0.0258,0.0293,0.0383,0.0448,0.0546,0.0629,0.0726,0.0793,0.0773,0.0973,0.0962,0.0919,0.0911,0.0954,0.0944,0.1065,0.1066,0.1066,0.1066,0.1066,0,0.0135,0.014,0.0162,0.0166,0.0179,0.0196,0.0231,0.0257,0.0337,0.0417,0.047,0.0574,0.07,0.0811,0.0847,0.0937,0.1016,0.0938,0.0952,0.0932,0.092,0.0979,0.0988,0.1067,0.1067,0.1067,0.1066,0,0.0123,0.0133,0.0144,0.0164,0.0173,0.0185,0.024,0.0285,0.0348,0.0466,0.0507,0.0645,0.0799,0.0869,0.1035,0.101,0.1108,0.1082,0.0992,0.0994,0.0953,0.0959,0.1101,0.1139,0.1059,0.1059,0.1058,0,0.0127,0.0129,0.0147,0.016,0.0171,0.0198,0.0231,0.0286,0.035,0.0517,0.0591,0.0751,0.0893,0.106,0.1072,0.1114,0.1125,0.1064,0.1023,0.0969,0.0989,0.0986,0.1009,0.1036,0.1035,0.1035,0.1035,0,0.0138,0.0138,0.0148,0.017,0.0196,0.0239,0.0292,0.0347,0.0447,0.0563,0.0748,0.0879,0.1016,0.1103,0.1104,0.1108,0.1088,0.105,0.1081,0.1056,0.0988,0.1022,0.0907,0.103,0.103,0.1031,0.1031,0.1031,0.0153,0.0158,0.0169,0.0188,0.0223,0.0286,0.0343,0.0434,0.0559,0.0754,0.0851,0.1039,0.1089,0.1127,0.1132,0.1051,0.1076,0.1016,0.1042,0.1053,0.1071,0.0883,0.0971,0.0972,0.0972,0.0972,0.0972,0,0.0179,0.0178,0.0195,0.0224,0.0266,0.0284,0.0396,0.0484,0.0654,0.0818,0.0993,0.1093,0.1151,0.1143,0.1051,0.104,0.1058,0.1043,0.1074,0.1111,0.1029,0.1007,0.1005,0.1005,0.1005,0.1005,0.1005,0.1005,0.0195,0.0205,0.0202,0.0257,0.0286,0.0381,0.0456,0.0605,0.0739,0.0943,0.1035,0.1114,0.1067,0.108,0.1065,0.107,0.1142,0.1111,0.1169,0.1119,0.1119,0.1119,0.1102,0.1121,0.1121,0.1249,0.125,0.1251]}],[{"header":{"parameterUnit":"m.s-1","parameterCategory":2,"la1":30.2991,"la2":30.254,"lo1":-89.0895,"lo2":-89.0444,"dy":0.0017,"dx":0.0017,"nx":28,"ny":28,"refTime":"2024-08-01T09:00:00:Z","depth":"2","parameterNumber":2,"parameterNumberName":"U-component_of_CURRENTS"},"data":[0,0,0,0,0,0,0,0,0,0,0,0,0,0,0,0,0,0,0,0,0,0,0,0,0,0,0,0,0,0,0,0,0,0,0,0,0,0,0,0,0,0,0,0,0,0,0,0,0,0,0,0,0,0,0,0,0,0,0.1089,0.1089,0,0.1104,0.1104,0.1104,0.1105,0.1105,0.1106,0.1106,0.1123,0.1123,0.1123,0,0,0,0,0,0,0,0,0,0,0,0,0,0.1104,0.1103,0.1089,0.1089,0.109,0.1104,0.1104,0.1104,0.1105,0.1105,0.1106,0.1106,0.1123,0.1123,0.1124,0,0,0,0,0,0,0,0,0,0,0,0,0,0.1104,0.1103,0.1089,0.1094,0.1095,0.1104,0.1104,0.1104,0.1105,0.1105,0.1106,0.1106,0.1122,0.1123,0.1124,0.1126,0,0,0.1125,0.1126,0,0,0,0,0,0,0,0,0.1104,0.1103,0.1093,0.1093,0.1094,0.1105,0.1116,0.1113,0.1105,0.1099,0.1106,0.1106,0.1119,0.1119,0.1119,0.1127,0.1128,0.1126,0.1126,0.1126,0.1126,0,0,0,0,0,0,0,0.1104,0.1103,0.1093,0.1093,0.1094,0.1111,0.111,0.1116,0.1106,0.1099,0.11,0.1106,0.1119,0.1118,0.1119,0.1128,0.1126,0.1126,0.1126,0.1127,0.1188,0.1189,0,0,0,0,0,0,0.1104,0.1102,0.1092,0.1093,0.1102,0.111,0.1109,0.11,0.1106,0.1108,0.1106,0.1106,0.1117,0.1118,0.112,0.1137,0.1126,0.1127,0.1127,0.1187,0.1188,0.119,0,0,0,0,0,0,0.1104,0.1102,0.1092,0.1101,0.1101,0.111,0.1099,0.11,0.1109,0.1111,0.1113,0.1115,0.1117,0.1119,0.1134,0.1137,0.1127,0.1128,0.1185,0.1187,0.1189,0.1163,0,0,0,0,0,0,0.1104,0.1102,0.1099,0.1101,0.1101,0.1104,0.1099,0.11,0.1113,0.1114,0.112,0.1121,0.1117,0.1133,0.1134,0.1138,0.1128,0.1184,0.1186,0.1189,0.1162,0.1164,0.1165,0,0,0,0,0,0.1104,0.1102,0.1098,0.1098,0.1095,0.1104,0.1106,0.1111,0.1114,0.1119,0.1125,0.1121,0.1149,0.1134,0.1135,0.1139,0.1183,0.1186,0.1188,0.1161,0.1163,0.1165,0,0,0,0,0,0,0.1102,0.1102,0.1098,0.1094,0.1101,0.1106,0.1112,0.1118,0.1126,0.113,0.1129,0.113,0.1146,0.1155,0.1138,0.117,0.1169,0.1173,0.1149,0.115,0.1152,0.1196,0.1129,0,0,0,0,0,0.1101,0.1106,0.1103,0.1105,0.1103,0.1109,0.1116,0.1122,0.113,0.1133,0.1144,0.1156,0.1158,0.1164,0.1175,0.1186,0.123,0.1197,0.1198,0.1199,0.124,0.1349,0.1365,0.1199,0.1199,0.1199,0,0,0.1102,0.1105,0.1107,0.1107,0.1109,0.1098,0.1113,0.1127,0.1127,0.1134,0.1148,0.1162,0.1165,0.1176,0.1185,0.1182,0.1251,0.1203,0.1203,0.1245,0.1354,0.1371,0.1385,0.1201,0.1201,0.12,0,0,0.1107,0.1105,0.1105,0.1112,0.1123,0.1111,0.1116,0.113,0.1144,0.1164,0.1163,0.1185,0.1201,0.12,0.1198,0.1221,0.1256,0.1228,0.1266,0.1369,0.1384,0.1398,0.1391,0.1405,0.1227,0.1227,0.1226,0,0.1113,0.1096,0.1109,0.1112,0.1111,0.1112,0.1102,0.1111,0.1137,0.1167,0.1172,0.1226,0.1212,0.1226,0.1233,0.1221,0.1273,0.1245,0.1372,0.1387,0.1402,0.1392,0.1408,0.1226,0.1226,0.1226,0.1226,0,0.1103,0.1099,0.1101,0.1088,0.1094,0.1091,0.1095,0.112,0.1139,0.1165,0.1223,0.123,0.1269,0.1259,0.125,0.1336,0.1329,0.1358,0.1364,0.1417,0.1402,0.1419,0.1224,0.1225,0.1225,0.1225,0,0,0.1108,0.1089,0.1099,0.1092,0.108,0.1089,0.1092,0.1108,0.1147,0.1191,0.1249,0.1261,0.1309,0.1315,0.1312,0.1401,0.1491,0.144,0.1445,0.1425,0.1676,0.1409,0.1401,0.1574,0.1579,0.1583,0.1591,0,0.1093,0.1074,0.1075,0.1065,0.1045,0.1066,0.108,0.1117,0.1154,0.1216,0.126,0.131,0.131,0.1342,0.1427,0.1501,0.1553,0.1484,0.1637,0.1639,0.1394,0.1419,0.1295,0.1274,0.1608,0.1611,0.1613,0,0.1087,0.1072,0.1041,0.1058,0.1058,0.1064,0.111,0.113,0.1209,0.1259,0.1332,0.1373,0.1457,0.147,0.1632,0.1607,0.1648,0.1699,0.1701,0.1493,0.1408,0.1295,0.1293,0.1641,0.1639,0.1637,0.1635,0,0.1072,0.1067,0.1034,0.1035,0.1039,0.1071,0.109,0.1162,0.1207,0.13,0.1356,0.146,0.1514,0.1647,0.1683,0.1715,0.1851,0.189,0.1666,0.1644,0.1586,0.1549,0.2019,0.2019,0.2019,0.2019,0.2018,0,0.1042,0.1047,0.1038,0.1027,0.1065,0.1079,0.1144,0.1196,0.1266,0.1329,0.1387,0.1446,0.1594,0.1649,0.1715,0.1692,0.186,0.1679,0.1652,0.1555,0.1517,0.19,0.1886,0.2019,0.2019,0.2019,0.2019,0,0.105,0.1015,0.1024,0.1037,0.1054,0.1105,0.1177,0.1223,0.129,0.137,0.1403,0.1481,0.1555,0.1592,0.1748,0.1677,0.1713,0.1648,0.1439,0.1385,0.1434,0.1419,0.1463,0.1454,0.1447,0.1441,0.1435,0,0.1038,0.1025,0.1059,0.1071,0.1086,0.1146,0.1182,0.1247,0.1283,0.1385,0.1413,0.1473,0.1481,0.1484,0.1418,0.1382,0.152,0.1183,0.1208,0.142,0.139,0.1387,0.1382,0.1109,0.1101,0.1095,0.109,0,0.103,0.1056,0.1051,0.1098,0.1133,0.1175,0.1225,0.1247,0.1312,0.1355,0.1389,0.1399,0.1338,0.1213,0.1058,0.1037,0.1179,0.1046,0.1415,0.1214,0.1072,0.1046,0.1057,0.1036,0.1041,0.1045,0.1048,0.105,0.1043,0.1069,0.1066,0.1123,0.1162,0.1185,0.1198,0.121,0.1238,0.1234,0.1281,0.12,0.1136,0.0837,0.0756,0.0648,0.0778,0.0743,0.0771,0.0803,0.0706,0.0554,0.0398,0.04,0.0401,0.0403,0.0404,0,0.1034,0.1054,0.1084,0.1114,0.1135,0.1188,0.1203,0.1163,0.1145,0.1092,0.1056,0.0826,0.066,0.0616,0.0368,0.0261,0.0362,0.0233,0.0419,0.0468,0.0513,0.0413,0.0021,0.0021,0.002,0.0019,0,0,0.1007,0.1016,0.1036,0.1056,0.1099,0.1131,0.1132,0.1044,0.0976,0.0829,0.071,0.0644,0.0595,0.0338,0.0243,0.012,0.0317,0.008,0.0381,0.0654,0.07,0.0779,0.067,0,0,0,0,0]},{"header":{"parameterUnit":"m.s-1","parameterCategory":2,"la1":30.2991,"la2":30.254,"lo1":-89.0895,"lo2":-89.0444,"dy":0.0017,"dx":0.0017,"nx":28,"ny":28,"refTime":"2024-08-01T09:00:00:Z","depth":"2","parameterNumber":3,"parameterNumberName":"V-component_of_CURRENTS"},"data":[0,0,0,0,0,0,0,0,0,0,0,0,0,0,0,0,0,0,0,0,0,0,0,0,0,0,0,0,0,0,0,0,0,0,0,0,0,0,0,0,0,0,0,0,0,0,0,0,0,0,0,0,0,0,0,0,0,0,0.0065,0.0065,0,0.0095,0.0095,0.0095,0.0102,0.0102,0.0102,0.0102,0.014,0.0141,0.0142,0,0,0,0,0,0,0,0,0,0,0,0,0,0.0019,0.002,0.0065,0.0066,0.0066,0.0095,0.0095,0.0095,0.0102,0.0102,0.0102,0.0102,0.0139,0.0141,0.0142,0,0,0,0,0,0,0,0,0,0,0,0,0,0.0043,0.002,0.0065,0.0073,0.0074,0.0095,0.0095,0.0095,0.0102,0.0102,0.0102,0.0102,0.0139,0.0141,0.0142,0.0157,0,0,0.0148,0.0148,0,0,0,0,0,0,0,0,0.0041,0.0044,0.0072,0.0073,0.0074,0.0095,0.0093,0.0117,0.0102,0.0091,0.0102,0.0102,0.0126,0.0129,0.0134,0.0159,0.0161,0.0148,0.0149,0.0149,0.015,0,0,0,0,0,0,0,0.004,0.0043,0.0076,0.0072,0.0074,0.0077,0.008,0.0097,0.0109,0.0092,0.0093,0.0097,0.0127,0.0132,0.0135,0.0161,0.0148,0.0149,0.015,0.0151,0.0189,0.0189,0,0,0,0,0,0,0.0037,0.0042,0.0075,0.0077,0.0057,0.0078,0.0082,0.0088,0.0109,0.0112,0.0097,0.0097,0.0129,0.0133,0.0136,0.0144,0.0149,0.0151,0.0152,0.0189,0.0189,0.0189,0,0,0,0,0,0,0.0036,0.004,0.0074,0.006,0.0065,0.0079,0.0087,0.0089,0.0094,0.0113,0.0116,0.01,0.0129,0.0134,0.0151,0.0146,0.0152,0.0153,0.0189,0.0189,0.0189,0.0166,0,0,0,0,0,0,0.0035,0.004,0.0042,0.006,0.0066,0.0091,0.0087,0.009,0.0097,0.0098,0.0116,0.012,0.013,0.0148,0.0152,0.0148,0.0155,0.0189,0.0189,0.0189,0.0167,0.0165,0.0164,0,0,0,0,0,0.0033,0.0041,0.0042,0.0046,0.0069,0.0092,0.0095,0.0104,0.0098,0.0106,0.0113,0.0119,0.0151,0.015,0.0155,0.0151,0.0189,0.0189,0.0189,0.0167,0.0166,0.0164,0,0,0,0,0,0,0.0022,0.0043,0.0044,0.0057,0.0074,0.0093,0.0101,0.0104,0.0115,0.0113,0.0124,0.0128,0.0141,0.0151,0.0149,0.0162,0.0169,0.017,0.0151,0.0149,0.0148,0.0159,0.0156,0,0,0,0,0,0.0021,0.0032,0.0051,0.0062,0.007,0.0083,0.0092,0.0099,0.0112,0.0117,0.0128,0.0137,0.0145,0.0151,0.0166,0.0175,0.0218,0.0175,0.0173,0.0172,0.0184,0.0282,0.0291,0.0189,0.0189,0.0189,0,0,0.0016,0.0032,0.0036,0.0061,0.0072,0.0083,0.0088,0.0105,0.0106,0.012,0.0126,0.0138,0.0148,0.0157,0.0163,0.0164,0.0212,0.0172,0.017,0.0184,0.0283,0.0294,0.0303,0.0189,0.0189,0.0189,0,0,0.0021,0.0031,0.0041,0.0055,0.0077,0.0086,0.009,0.011,0.011,0.012,0.0126,0.0143,0.015,0.0164,0.0168,0.0171,0.0205,0.0161,0.016,0.0254,0.0264,0.0273,0.0293,0.0305,0.0156,0.0156,0.0156,0,0.0013,0.003,0.0048,0.0063,0.0068,0.0085,0.0092,0.0098,0.0119,0.0128,0.0119,0.0157,0.0157,0.0183,0.0166,0.017,0.0207,0.0163,0.0255,0.0265,0.0276,0.0294,0.0308,0.0155,0.0155,0.0155,0.0155,0,0.0026,0.0036,0.0045,0.0064,0.0074,0.0087,0.0096,0.0106,0.0104,0.0119,0.0148,0.0162,0.0192,0.0179,0.0162,0.0221,0.0214,0.0247,0.0263,0.0285,0.0302,0.0316,0.0153,0.0154,0.0154,0.0155,0,0,0.0013,0.0046,0.0047,0.0054,0.0073,0.0085,0.0088,0.0107,0.0132,0.0141,0.0184,0.0173,0.02,0.0207,0.0208,0.0262,0.0327,0.0269,0.0275,0.0293,0.049,0.0418,0.0426,0.0386,0.0389,0.0392,0.0456,0,0.0014,0.0038,0.0051,0.0062,0.007,0.0083,0.0091,0.0111,0.0135,0.0186,0.0207,0.0249,0.0205,0.0228,0.0275,0.0343,0.0372,0.0304,0.0462,0.0466,0.0406,0.0444,0.0406,0.0456,0.047,0.0472,0.0474,0,0.0015,0.0033,0.0044,0.0067,0.0072,0.0076,0.011,0.0124,0.0189,0.0215,0.0269,0.0306,0.0366,0.0342,0.0459,0.0421,0.0439,0.0475,0.0481,0.0441,0.0423,0.0446,0.0482,0.0498,0.0496,0.0495,0.0493,0,-0.0002,0.0023,0.0031,0.0037,0.0068,0.0069,0.0081,0.0131,0.0171,0.0253,0.032,0.0391,0.0462,0.0521,0.0548,0.0529,0.0684,0.0683,0.0621,0.0613,0.0626,0.0614,0.0761,0.0761,0.0761,0.0761,0.0761,0,-0.0011,-0.0006,0.0023,0.0028,0.0045,0.006,0.0102,0.0127,0.0214,0.0307,0.0341,0.0453,0.0522,0.0604,0.0604,0.0651,0.0733,0.063,0.0646,0.0607,0.0593,0.0675,0.0664,0.0763,0.0763,0.0762,0.0762,0,-0.0038,-0.0015,-0.0006,0.0023,0.0037,0.004,0.0106,0.0167,0.0229,0.0364,0.04,0.0536,0.0648,0.0666,0.0779,0.0734,0.0777,0.0754,0.0652,0.0654,0.0619,0.0606,0.0724,0.0723,0.0721,0.072,0.0719,0,-0.0048,-0.0041,-0.0014,0.0011,0.002,0.0049,0.0101,0.0161,0.0245,0.0433,0.052,0.0649,0.0762,0.0846,0.0798,0.0773,0.0774,0.0687,0.0641,0.0622,0.0626,0.0615,0.0604,0.0632,0.063,0.0629,0.0628,0,-0.0058,-0.0052,-0.0033,0.0015,0.0057,0.0117,0.0189,0.0264,0.0386,0.0518,0.0722,0.0823,0.0867,0.0861,0.0765,0.0735,0.0688,0.0657,0.0746,0.0626,0.0536,0.0538,0.0532,0.0617,0.0618,0.0619,0.0619,0.062,-0.0056,-0.0045,0.0,0.0045,0.0096,0.0199,0.0273,0.04,0.0559,0.0753,0.0833,0.0935,0.0888,0.0761,0.0712,0.0607,0.0626,0.0572,0.0577,0.0583,0.054,0.0452,0.0505,0.0505,0.0506,0.0506,0.0506,0,-0.0021,0.0009,0.0049,0.0121,0.0195,0.0202,0.0363,0.0468,0.0682,0.0784,0.0923,0.0851,0.0817,0.0734,0.0564,0.0494,0.0499,0.0464,0.049,0.05,0.051,0.0464,0.0408,0.0408,0.0408,0.0408,0,0,0.0011,0.0068,0.0097,0.0222,0.026,0.0373,0.0469,0.0631,0.0722,0.0851,0.0855,0.0871,0.078,0.0642,0.0566,0.0479,0.0502,0.0455,0.0533,0.0581,0.0592,0.0564,0.0503,0,0,0,0,0]}],[{"header":{"parameterUnit":"m.s-1","parameterCategory":2,"la1":30.2991,"la2":30.254,"lo1":-89.0895,"lo2":-89.0444,"dy":0.0017,"dx":0.0017,"nx":28,"ny":28,"refTime":"2024-08-01T09:00:00:Z","depth":"4","parameterNumber":2,"parameterNumberName":"U-component_of_CURRENTS"},"data":[0,0,0,0,0,0,0,0,0,0,0,0,0,0,0,0,0,0,0,0,0,0,0,0,0,0,0,0,0,0,0,0,0,0,0,0,0,0,0,0,0,0,0,0,0,0,0,0,0,0,0,0,0,0,0,0,0,0,0.0271,0.0272,0,0.0275,0.0275,0.0275,0.0315,0.0316,0.0317,0.0319,0.0332,0.0331,0.0331,0,0,0,0,0,0,0,0,0,0,0,0,0,0.0282,0.0281,0.0271,0.0272,0.0272,0.0275,0.0275,0.0275,0.0315,0.0316,0.0318,0.0319,0.0332,0.0331,0.033,0,0,0,0,0,0,0,0,0,0,0,0,0,0.0278,0.0281,0.0271,0.0294,0.0297,0.0275,0.0275,0.0275,0.0314,0.0316,0.0318,0.032,0.0333,0.0332,0.033,0.0284,0,0,0.0326,0.0326,0,0,0,0,0,0,0,0,0.0278,0.0277,0.0291,0.0293,0.0296,0.0299,0.0284,0.0279,0.0314,0.0304,0.0319,0.0321,0.0323,0.0322,0.0314,0.0284,0.0285,0.0326,0.0326,0.0325,0.0325,0,0,0,0,0,0,0,0.0278,0.0277,0.027,0.0291,0.0294,0.0299,0.0301,0.0283,0.03,0.0305,0.0309,0.0314,0.0324,0.0315,0.0315,0.0285,0.0326,0.0325,0.0324,0.0324,0.0291,0.0291,0,0,0,0,0,0,0.0282,0.0277,0.027,0.027,0.0295,0.0298,0.0299,0.0293,0.03,0.0304,0.0312,0.0316,0.0316,0.0316,0.0316,0.0319,0.0325,0.0324,0.0323,0.0291,0.0291,0.0291,0,0,0,0,0,0,0.0282,0.0281,0.0269,0.0277,0.0276,0.0296,0.0289,0.0293,0.0306,0.0306,0.031,0.0325,0.0318,0.0317,0.0334,0.0318,0.0323,0.0322,0.0291,0.0291,0.0291,0.0288,0,0,0,0,0,0,0.0282,0.0281,0.0284,0.0277,0.0276,0.0268,0.0288,0.0291,0.0306,0.0311,0.0317,0.0319,0.0319,0.0336,0.0332,0.0316,0.0321,0.0291,0.0291,0.0291,0.0288,0.0287,0.0287,0,0,0,0,0,0.0282,0.0279,0.0283,0.0283,0.0277,0.0268,0.0268,0.0287,0.0305,0.0306,0.0328,0.032,0.0331,0.0335,0.0331,0.0314,0.0292,0.0291,0.0291,0.0288,0.0287,0.0287,0,0,0,0,0,0,0.0288,0.0283,0.0287,0.0284,0.0282,0.0277,0.0284,0.0291,0.0305,0.0325,0.0324,0.0327,0.0334,0.0325,0.0329,0.0304,0.0307,0.0306,0.0306,0.0305,0.0305,0.027,0.032,0,0,0,0,0,0.0288,0.0283,0.0279,0.0276,0.0279,0.0281,0.0284,0.0298,0.0307,0.0316,0.0317,0.0322,0.0321,0.032,0.0319,0.0301,0.0328,0.0287,0.0286,0.0286,0.0255,0.0341,0.0346,0.029,0.029,0.029,0,0,0.0289,0.0286,0.0284,0.0278,0.028,0.0256,0.0288,0.03,0.0275,0.0313,0.0295,0.0325,0.032,0.0313,0.0312,0.0308,0.0313,0.0285,0.0285,0.0254,0.0341,0.0347,0.0352,0.029,0.029,0.029,0,0,0.0279,0.0287,0.0277,0.0264,0.0272,0.0265,0.027,0.0273,0.0276,0.0262,0.0294,0.0316,0.0294,0.0297,0.029,0.0279,0.0316,0.0288,0.0246,0.0331,0.0336,0.0342,0.0377,0.0385,0.0279,0.0279,0.0279,0,0.0287,0.0254,0.0274,0.025,0.023,0.0263,0.0232,0.0227,0.0234,0.0237,0.0255,0.0276,0.0268,0.0273,0.0262,0.0272,0.033,0.0251,0.0332,0.0338,0.0343,0.0378,0.0388,0.0279,0.0279,0.0279,0.0279,0,0.0249,0.0224,0.0217,0.0184,0.0174,0.0157,0.0149,0.0151,0.016,0.0161,0.0188,0.0214,0.0238,0.0231,0.0226,0.0261,0.0293,0.0335,0.0337,0.0349,0.0384,0.0394,0.0279,0.0279,0.0279,0.0279,0,0,0.0253,0.02,0.0196,0.0156,0.0134,0.0116,0.0087,0.0067,0.0079,0.009,0.0108,0.0093,0.0169,0.0167,0.0212,0.0244,0.0311,0.0296,0.0301,0.0333,0.0493,0.0377,0.0376,0.0408,0.0409,0.0411,0.0501,0,0.0213,0.0141,0.0131,0.0053,0.0006,0.0014,-0.0019,-0.0019,0.0014,0.0048,0.0086,0.0134,0.0133,0.0194,0.0226,0.0312,0.0339,0.0281,0.0471,0.0474,0.0374,0.0384,0.0416,0.0508,0.0511,0.0512,0.0513,0,0.0169,0.0116,0.0037,-0.0034,-0.0046,-0.0076,-0.0084,-0.0098,-0.004,0.0009,0.0089,0.0158,0.0209,0.023,0.0351,0.0338,0.0394,0.0436,0.0444,0.0333,0.0375,0.0495,0.0532,0.053,0.0529,0.0528,0.0526,0,0.013,0.0049,-0.0022,-0.0054,-0.0117,-0.0135,-0.0146,-0.0106,-0.0078,0.0032,0.0103,0.0196,0.0279,0.0367,0.043,0.0433,0.056,0.0595,0.0527,0.052,0.0603,0.0596,0.0664,0.0664,0.0664,0.0664,0.0664,0,0.0063,-0.0001,-0.0045,-0.0097,-0.0154,-0.0168,-0.0152,-0.0137,-0.0046,0.0014,0.0114,0.0196,0.0328,0.0413,0.0462,0.0509,0.0606,0.0496,0.0534,0.0596,0.0588,0.0609,0.0602,0.0667,0.0666,0.0666,0.0665,0,0.0003,-0.0024,-0.0113,-0.0173,-0.0179,-0.0215,-0.0167,-0.0131,-0.0041,0.006,0.0104,0.0229,0.0337,0.0425,0.0562,0.0545,0.0604,0.0594,0.0615,0.0658,0.0497,0.0488,0.0537,0.0534,0.0531,0.0529,0.0526,0,-0.0052,-0.01,-0.0158,-0.0174,-0.0203,-0.0214,-0.0195,-0.0129,-0.0067,0.0067,0.0106,0.023,0.0311,0.042,0.0489,0.0572,0.0559,0.0572,0.0528,0.045,0.0484,0.048,0.0475,0.0522,0.0521,0.052,0.052,0,-0.0159,-0.0153,-0.0205,-0.0228,-0.0227,-0.0222,-0.0192,-0.0148,-0.0048,0.0036,0.014,0.0202,0.0299,0.0381,0.044,0.049,0.0557,0.0543,0.0549,0.0508,0.0433,0.0468,0.0467,0.051,0.0511,0.0512,0.0513,0,-0.0209,-0.0241,-0.0255,-0.0277,-0.0269,-0.0243,-0.0221,-0.0147,-0.0083,0.0063,0.0086,0.0212,0.0305,0.0336,0.0388,0.0424,0.0415,0.0395,0.0409,0.0421,0.0332,0.0216,0.0245,0,0,0,0,0,-0.0257,-0.0264,-0.0295,-0.0297,-0.0283,-0.0273,-0.0222,-0.0179,-0.008,-0.0011,0.0047,0.0138,0.0217,0.0256,0.0275,0.0295,0.0393,0.0304,0.037,0.0455,0.0466,0.0367,0,0,0,0,0,0,-0.0271,-0.0298,-0.0304,-0.0301,-0.0294,-0.0268,-0.024,-0.018,-0.0134,-0.0032,0.0026,0.0091,0.0181,0.023,0.0269,0.0278,0.0301,0.0366,0.0364,0.0448,0.0459,0.0468,0.037,0,0,0,0,0]},{"header":{"parameterUnit":"m.s-1","parameterCategory":2,"la1":30.2991,"la2":30.254,"lo1":-89.0895,"lo2":-89.0444,"dy":0.0017,"dx":0.0017,"nx":28,"ny":28,"refTime":"2024-08-01T09:00:00:Z","depth":"4","parameterNumber":3,"parameterNumberName":"V-component_of_CURRENTS"},"data":[0,0,0,0,0,0,0,0,0,0,0,0,0,0,0,0,0,0,0,0,0,0,0,0,0,0,0,0,0,0,0,0,0,0,0,0,0,0,0,0,0,0,0,0,0,0,0,0,0,0,0,0,0,0,0,0,0,0,0.0152,0.0153,0,0.0183,0.0183,0.0183,0.0197,0.0197,0.0197,0.0196,0.0232,0.0233,0.0234,0,0,0,0,0,0,0,0,0,0,0,0,0,0.01,0.0101,0.0152,0.0153,0.0153,0.0182,0.0183,0.0183,0.0197,0.0197,0.0197,0.0196,0.0232,0.0233,0.0234,0,0,0,0,0,0,0,0,0,0,0,0,0,0.0126,0.0101,0.0152,0.0163,0.0164,0.0182,0.0183,0.0184,0.0197,0.0197,0.0196,0.0196,0.0231,0.0233,0.0234,0.0247,0,0,0.0239,0.024,0,0,0,0,0,0,0,0,0.0125,0.0128,0.0161,0.0162,0.0163,0.0185,0.0177,0.0205,0.0197,0.0185,0.0196,0.0196,0.0216,0.0219,0.0226,0.0249,0.025,0.0239,0.024,0.0241,0.0241,0,0,0,0,0,0,0,0.0123,0.0127,0.0165,0.0161,0.0163,0.0163,0.0167,0.0183,0.0202,0.0186,0.0187,0.0189,0.0217,0.0225,0.0227,0.0251,0.0239,0.0241,0.0242,0.0242,0.0275,0.0275,0,0,0,0,0,0,0.0118,0.0125,0.0164,0.0166,0.0142,0.0164,0.0169,0.0179,0.0202,0.0205,0.0189,0.019,0.0222,0.0225,0.0228,0.0256,0.0241,0.0242,0.0243,0.0275,0.0275,0.0275,0,0,0,0,0,0,0.0117,0.0122,0.0163,0.0145,0.015,0.0165,0.0177,0.018,0.0186,0.0204,0.0207,0.0192,0.0222,0.0226,0.0237,0.0257,0.0243,0.0244,0.0275,0.0275,0.0275,0.0305,0,0,0,0,0,0,0.0116,0.0122,0.0127,0.0145,0.0151,0.0177,0.0177,0.018,0.0187,0.0188,0.0208,0.0211,0.0222,0.0235,0.0239,0.0259,0.0246,0.0275,0.0275,0.0275,0.0304,0.0306,0.0307,0,0,0,0,0,0.0114,0.0121,0.0127,0.0132,0.0159,0.0177,0.018,0.019,0.0187,0.0194,0.0201,0.021,0.0237,0.0236,0.0241,0.0262,0.0275,0.0275,0.0275,0.0303,0.0305,0.0307,0,0,0,0,0,0,0.0101,0.0124,0.0131,0.0145,0.0161,0.0179,0.0184,0.0189,0.02,0.0199,0.0211,0.0215,0.0232,0.0236,0.0235,0.0268,0.0257,0.0258,0.0277,0.0279,0.0281,0.0307,0.0247,0,0,0,0,0,0.0101,0.0114,0.0134,0.0146,0.0153,0.0168,0.0175,0.0184,0.0195,0.02,0.0213,0.0223,0.0236,0.0247,0.0257,0.0278,0.0271,0.0292,0.0294,0.0295,0.0318,0.0292,0.0294,0.0275,0.0275,0.0275,0,0,0.0098,0.0113,0.012,0.0144,0.0156,0.0177,0.0172,0.0186,0.0209,0.0202,0.0231,0.0229,0.0239,0.0262,0.027,0.027,0.0296,0.0295,0.0297,0.0319,0.0292,0.0294,0.0296,0.0274,0.0275,0.0275,0,0,0.0102,0.0113,0.0127,0.0144,0.0164,0.0178,0.0181,0.0202,0.0216,0.0239,0.0237,0.0249,0.0268,0.0286,0.0295,0.0312,0.0301,0.0305,0.0347,0.0321,0.0323,0.0325,0.0318,0.0319,0.0313,0.0313,0.0313,0,0.0098,0.0127,0.0133,0.0154,0.0175,0.018,0.0206,0.0222,0.0244,0.0265,0.0251,0.0279,0.0288,0.032,0.0331,0.0321,0.0301,0.0341,0.0325,0.0326,0.0327,0.032,0.032,0.0314,0.0314,0.0314,0.0314,0,0.0117,0.0143,0.0152,0.0187,0.0205,0.0228,0.0252,0.0275,0.0287,0.0305,0.0332,0.0331,0.0351,0.0351,0.0355,0.0371,0.0353,0.0324,0.0323,0.0331,0.0323,0.0323,0.0316,0.0316,0.0315,0.0315,0,0,0.0108,0.0158,0.0163,0.0195,0.023,0.0251,0.0291,0.0338,0.0367,0.0377,0.0403,0.0432,0.0422,0.0431,0.042,0.0412,0.0407,0.0378,0.0376,0.038,0.0355,0.0331,0.0329,0.036,0.036,0.036,0.0347,0,0.0128,0.0178,0.02,0.0256,0.0287,0.0316,0.0355,0.0393,0.0415,0.0436,0.0439,0.0454,0.0452,0.0452,0.0444,0.041,0.0407,0.0414,0.0341,0.034,0.0324,0.0328,0.0361,0.0347,0.0346,0.0346,0.0346,0,0.0144,0.0183,0.0241,0.031,0.0326,0.0366,0.0435,0.0469,0.0501,0.0512,0.0523,0.0502,0.0514,0.0482,0.0458,0.0455,0.0422,0.0392,0.0389,0.0363,0.0317,0.0335,0.0346,0.0346,0.0346,0.0346,0.0346,0,0.0146,0.0213,0.0268,0.0291,0.0362,0.0411,0.0456,0.0504,0.0532,0.0556,0.0558,0.0553,0.0544,0.05,0.046,0.0449,0.0406,0.0375,0.033,0.0328,0.0341,0.0339,0.0354,0.0354,0.0354,0.0354,0.0354,0,0.0169,0.0213,0.0282,0.0317,0.0393,0.0435,0.0516,0.055,0.0576,0.0597,0.0596,0.0585,0.0543,0.0507,0.0462,0.0405,0.041,0.0352,0.0324,0.0353,0.0353,0.0341,0.034,0.0354,0.0354,0.0354,0.0354,0,0.0173,0.0213,0.0276,0.0362,0.0401,0.0456,0.0554,0.0589,0.0624,0.0639,0.0639,0.0612,0.057,0.0525,0.0454,0.0416,0.0355,0.0332,0.0391,0.0363,0.0296,0.0297,0.0282,0.0281,0.028,0.028,0.0279,0,0.0184,0.0217,0.0304,0.0344,0.0397,0.0493,0.0549,0.061,0.0628,0.0648,0.0627,0.0602,0.058,0.048,0.0427,0.0349,0.0331,0.0315,0.0299,0.0316,0.0289,0.0291,0.0292,0.0278,0.0278,0.0277,0.0277,0,0.0201,0.0223,0.0269,0.0345,0.0416,0.0499,0.0577,0.0586,0.0632,0.0657,0.0619,0.0576,0.0527,0.0456,0.0408,0.0343,0.0331,0.0306,0.0307,0.0292,0.031,0.0285,0.0287,0.0274,0.0275,0.0275,0.0275,0,0.0199,0.0223,0.0267,0.0347,0.0413,0.0473,0.0533,0.0563,0.0591,0.0598,0.0583,0.0548,0.0536,0.0451,0.0394,0.0344,0.032,0.0303,0.0304,0.0306,0.0312,0.0339,0.0299,0,0,0,0,0,0.0197,0.0224,0.0273,0.0344,0.04,0.0459,0.0522,0.0565,0.0605,0.0571,0.0579,0.0531,0.0456,0.0423,0.0365,0.0362,0.0304,0.0292,0.0283,0.0259,0.0262,0.0262,0,0,0,0,0,0,0.0192,0.0225,0.0258,0.0323,0.0376,0.0447,0.0494,0.0526,0.0513,0.0538,0.0495,0.0513,0.0433,0.0489,0.0363,0.0349,0.0333,0.027,0.0269,0.0257,0.026,0.0263,0.0264,0,0,0,0,0]}]]